[[{"header":{"parameterUnit":"m.s-1","parameterCategory":2,"la1":30.2991,"la2":30.254,"lo1":-89.0895,"lo2":-89.0444,"dy":0.0017,"dx":0.0017,"nx":28,"ny":28,"refTime":"2024-03-29T03:00:00:Z","depth":"0","parameterNumber":2,"parameterNumberName":"U-component_of_CURRENTS"},"data":[0,0,0,0,0,0,0,0,0,0,0,0,0,0,0,0,0,0,0,0,0,0,0,0,0,0,0,0,0,0,0,0,0,0,0,0,0,0,0,0,0,0,0,0,0,0,0,0,0,0,0,0,0,0,0,0,0,0,0.2817,0.2817,0,0.2825,0.2825,0.2825,0.2793,0.2792,0.2792,0.2791,0.2781,0.2781,0.2782,0,0,0,0,0,0,0,0,0,0,0,0,0,0.2797,0.2797,0.2817,0.2817,0.2817,0.2825,0.2825,0.2825,0.2793,0.2792,0.2791,0.279,0.2781,0.2781,0.2782,0,0,0,0,0,0,0,0,0,0,0,0,0,0.2803,0.2797,0.2817,0.2804,0.2803,0.2825,0.2825,0.2825,0.2793,0.2792,0.2791,0.279,0.278,0.2781,0.2782,0.2808,0,0,0.2784,0.2784,0,0,0,0,0,0,0,0,0.2803,0.2804,0.2806,0.2805,0.2804,0.2809,0.2815,0.2819,0.2794,0.2795,0.2791,0.279,0.2791,0.2791,0.2792,0.2807,0.2807,0.2784,0.2784,0.2784,0.2784,0,0,0,0,0,0,0,0.2802,0.2803,0.2818,0.2806,0.2805,0.2807,0.2806,0.2815,0.2797,0.2794,0.2793,0.2798,0.279,0.2791,0.2791,0.2807,0.2784,0.2784,0.2785,0.2785,0.2868,0.287,0,0,0,0,0,0,0.2806,0.2803,0.2817,0.2818,0.2803,0.2808,0.2807,0.2807,0.2797,0.2795,0.2799,0.2796,0.279,0.279,0.2791,0.2849,0.2784,0.2785,0.2785,0.2867,0.2869,0.2871,0,0,0,0,0,0,0.2806,0.2807,0.2817,0.2813,0.2814,0.2809,0.2809,0.2807,0.2815,0.2801,0.2798,0.2809,0.279,0.279,0.2812,0.2847,0.2785,0.2786,0.2864,0.2867,0.287,0.2948,0,0,0,0,0,0,0.2805,0.2807,0.2814,0.2813,0.2815,0.2847,0.2811,0.2808,0.282,0.2817,0.2809,0.2806,0.2789,0.2811,0.2813,0.2847,0.2786,0.2862,0.2866,0.2869,0.2943,0.2953,0.2962,0,0,0,0,0,0.2804,0.2823,0.2814,0.2817,0.2823,0.2848,0.285,0.2841,0.2822,0.284,0.283,0.2807,0.2834,0.2814,0.2815,0.285,0.286,0.2865,0.2869,0.2939,0.2951,0.2962,0,0,0,0,0,0,0.2823,0.2822,0.2812,0.2831,0.2845,0.2844,0.2862,0.2852,0.2859,0.2854,0.283,0.2829,0.2862,0.2849,0.2827,0.2885,0.2844,0.2849,0.2897,0.2909,0.2918,0.2918,0.2787,0,0,0,0,0,0.283,0.2841,0.2845,0.2862,0.2871,0.2867,0.2877,0.2872,0.2876,0.2876,0.2869,0.2867,0.2881,0.2888,0.2894,0.2928,0.2961,0.2952,0.2962,0.2969,0.2972,0.3075,0.3095,0.2884,0.2884,0.2884,0,0,0.2841,0.2845,0.285,0.2867,0.2874,0.2891,0.287,0.2895,0.2908,0.2877,0.2896,0.2901,0.2898,0.2934,0.2948,0.2926,0.305,0.2975,0.2981,0.2979,0.3082,0.3103,0.3121,0.2887,0.2887,0.2886,0,0,0.2871,0.2875,0.2891,0.2904,0.2922,0.2925,0.2935,0.2943,0.2947,0.2972,0.2955,0.2985,0.2994,0.3007,0.3012,0.308,0.3097,0.3082,0.313,0.3231,0.325,0.3266,0.3349,0.3373,0.3086,0.3086,0.3087,0,0.2881,0.2895,0.2904,0.2923,0.2935,0.294,0.2961,0.2974,0.2987,0.3012,0.2987,0.3045,0.3031,0.3095,0.3104,0.3102,0.3159,0.3086,0.3245,0.3262,0.3278,0.3359,0.3384,0.3091,0.309,0.309,0.3089,0,0.2913,0.2927,0.2944,0.2959,0.2983,0.3006,0.3023,0.3055,0.306,0.3075,0.3143,0.3142,0.3183,0.3183,0.3153,0.3259,0.3264,0.3249,0.3219,0.3304,0.3384,0.3408,0.3097,0.3095,0.3094,0.3093,0,0,0.2911,0.2954,0.2954,0.297,0.3,0.3023,0.3071,0.3121,0.3168,0.3193,0.3267,0.3282,0.3301,0.3308,0.3302,0.3363,0.3507,0.3348,0.3351,0.3433,0.374,0.3687,0.3708,0.3533,0.3537,0.3541,0.3756,0,0.2923,0.2959,0.2981,0.3019,0.3039,0.3075,0.312,0.3174,0.322,0.3297,0.3337,0.3394,0.3346,0.3377,0.3441,0.3494,0.3574,0.345,0.3641,0.3646,0.3592,0.3735,0.3535,0.3705,0.378,0.3784,0.3787,0,0.2928,0.2955,0.2992,0.3052,0.3066,0.3097,0.3189,0.3233,0.3347,0.3391,0.348,0.3514,0.3614,0.3553,0.3727,0.3659,0.3705,0.3737,0.3747,0.3683,0.3639,0.3629,0.3747,0.3624,0.3824,0.3821,0.3819,0,0.2906,0.2957,0.2988,0.3004,0.3077,0.3118,0.3164,0.3266,0.3324,0.3465,0.3541,0.3662,0.3742,0.3834,0.389,0.3836,0.4079,0.4021,0.4025,0.4021,0.3877,0.3853,0.3895,0.4158,0.4157,0.4157,0.4156,0,0.2897,0.2921,0.2983,0.2999,0.3049,0.3114,0.3188,0.3263,0.3392,0.3498,0.359,0.3708,0.3818,0.3954,0.3983,0.4099,0.4177,0.407,0.4091,0.3898,0.3875,0.3778,0.3737,0.4165,0.4163,0.4162,0.416,0,0.2865,0.2902,0.2942,0.3018,0.3036,0.3078,0.3174,0.3258,0.3376,0.3531,0.3588,0.3789,0.3983,0.4081,0.425,0.4227,0.4204,0.4334,0.4089,0.4076,0.392,0.3891,0.3847,0.374,0.4389,0.4389,0.4389,0,0.2851,0.2869,0.2932,0.2963,0.2997,0.3056,0.3119,0.3231,0.333,0.3582,0.3679,0.3908,0.4049,0.4281,0.4302,0.4394,0.425,0.4243,0.4084,0.3921,0.3906,0.3739,0.3639,0.3937,0.3934,0.3931,0.3929,0,0.2834,0.2858,0.29,0.2949,0.3009,0.3055,0.3154,0.3208,0.3391,0.3521,0.3728,0.3854,0.4093,0.4108,0.4227,0.4241,0.4014,0.4186,0.4092,0.363,0.3379,0.3281,0.3781,0.3903,0.3906,0.3907,0.3909,0.391,0.2828,0.2851,0.2909,0.2952,0.3004,0.3054,0.3063,0.3191,0.3298,0.3467,0.3664,0.3782,0.3886,0.402,0.4019,0.3866,0.3879,0.3711,0.3719,0.3586,0.3377,0.3818,0.3908,0.391,0.3912,0.3914,0.3916,0,0.2833,0.287,0.2915,0.2956,0.2973,0.3013,0.3094,0.3092,0.3167,0.3347,0.3472,0.3542,0.3548,0.36,0.3539,0.3401,0.3209,0.3302,0.3005,0.2955,0.342,0.3288,0.3155,0.3155,0.3155,0.3155,0.3155,0.3155,0.285,0.2894,0.2914,0.2916,0.2926,0.2902,0.2912,0.2921,0.2989,0.3023,0.305,0.3139,0.3265,0.3272,0.3122,0.3042,0.281,0.2663,0.2707,0.301,0.3046,0.308,0.2944,0.2741,0.274,0.2045,0.204,0.2037]},{"header":{"parameterUnit":"m.s-1","parameterCategory":2,"la1":30.2991,"la2":30.254,"lo1":-89.0895,"lo2":-89.0444,"dy":0.0017,"dx":0.0017,"nx":28,"ny":28,"refTime":"2024-03-29T03:00:00:Z","depth":"0","parameterNumber":3,"parameterNumberName":"V-component_of_CURRENTS"},"data":[0,0,0,0,0,0,0,0,0,0,0,0,0,0,0,0,0,0,0,0,0,0,0,0,0,0,0,0,0,0,0,0,0,0,0,0,0,0,0,0,0,0,0,0,0,0,0,0,0,0,0,0,0,0,0,0,0,0,0.0229,0.0228,0,0.0173,0.0173,0.0172,0.0128,0.0128,0.0128,0.0127,0.0055,0.0053,0.0052,0,0,0,0,0,0,0,0,0,0,0,0,0,0.0246,0.0246,0.0229,0.0228,0.0228,0.0173,0.0173,0.0172,0.0128,0.0128,0.0128,0.0127,0.0056,0.0054,0.0052,0,0,0,0,0,0,0,0,0,0,0,0,0,0.0218,0.0246,0.0229,0.0201,0.0198,0.0174,0.0172,0.0171,0.0128,0.0128,0.0128,0.0127,0.0056,0.0054,0.0051,0.0044,0,0,0.0044,0.0043,0,0,0,0,0,0,0,0,0.0219,0.0217,0.0205,0.0203,0.0199,0.0159,0.0152,0.0128,0.0128,0.0153,0.0127,0.0127,0.009,0.0084,0.0073,0.004,0.0037,0.0043,0.0042,0.0041,0.004,0,0,0,0,0,0,0,0.0222,0.0219,0.0205,0.0205,0.0201,0.0174,0.0169,0.0147,0.0123,0.0151,0.0148,0.0145,0.0088,0.0075,0.0071,0.0036,0.0043,0.0041,0.004,0.0039,0.0001,0.0001,0,0,0,0,0,0,0.0235,0.0221,0.0207,0.0203,0.0211,0.0174,0.0169,0.0171,0.0123,0.0116,0.0145,0.0143,0.008,0.0074,0.0068,0.0078,0.0041,0.0038,0.0037,0.0,0.0001,0.0002,0,0,0,0,0,0,0.0236,0.0235,0.0209,0.0212,0.0207,0.0175,0.0176,0.017,0.0162,0.0119,0.0111,0.0144,0.0079,0.0071,0.0051,0.0074,0.0037,0.0035,-0.0,0.0001,0.0001,0.0084,0,0,0,0,0,0,0.0237,0.0235,0.024,0.0213,0.0207,0.0208,0.0177,0.0169,0.0161,0.0158,0.0116,0.0108,0.0078,0.0055,0.0049,0.007,0.0033,-0.0001,0.0,0.0001,0.0081,0.0088,0.0094,0,0,0,0,0,0.0237,0.0254,0.024,0.0238,0.0215,0.021,0.0204,0.0178,0.0162,0.0167,0.0132,0.011,0.0057,0.0053,0.0046,0.0067,-0.0001,-0.0,0.0001,0.0078,0.0087,0.0094,0,0,0,0,0,0,0.0267,0.025,0.0235,0.0246,0.0233,0.0203,0.0205,0.0186,0.0162,0.0156,0.0113,0.0103,0.0093,0.0067,0.0064,0.0057,0.0026,0.0025,0.0087,0.0094,0.0101,0.0126,0.0031,0,0,0,0,0,0.0276,0.0282,0.026,0.0269,0.0264,0.0234,0.0228,0.0212,0.0188,0.0177,0.0147,0.0115,0.0091,0.0083,0.0054,0.0053,0.0038,0.0061,0.0068,0.0074,0.0088,0.008,0.0088,0.0005,0.0005,0.0005,0,0,0.029,0.0281,0.0284,0.0275,0.026,0.0268,0.0229,0.0228,0.0237,0.0173,0.0173,0.0133,0.0093,0.0087,0.0082,0.0071,0.009,0.0075,0.0081,0.0092,0.0083,0.0091,0.0098,0.0006,0.0006,0.0006,0,0,0.0328,0.0314,0.0332,0.0326,0.0312,0.0297,0.0301,0.0277,0.0268,0.0258,0.0215,0.019,0.0156,0.0134,0.0118,0.0143,0.0119,0.0136,0.0196,0.0189,0.0197,0.0203,0.0202,0.0208,0.0146,0.0146,0.0147,0,0.0343,0.0361,0.0337,0.0352,0.0354,0.0316,0.0337,0.0327,0.0299,0.0301,0.0271,0.0224,0.0181,0.0184,0.0186,0.016,0.0155,0.0173,0.02,0.0206,0.021,0.0208,0.0213,0.0151,0.015,0.015,0.0149,0,0.039,0.0404,0.0416,0.0422,0.0423,0.0434,0.0419,0.0421,0.0399,0.0384,0.0377,0.0317,0.0296,0.0274,0.0234,0.0253,0.0238,0.0205,0.0186,0.0224,0.0219,0.0223,0.0156,0.0155,0.0154,0.0153,0,0,0.0426,0.0444,0.0449,0.047,0.0459,0.0474,0.049,0.0498,0.0531,0.0486,0.0522,0.0452,0.0423,0.0402,0.0353,0.0338,0.0354,0.0294,0.0292,0.0304,0.0352,0.0322,0.0322,0.0331,0.0332,0.0332,0.0337,0,0.0467,0.0518,0.051,0.0563,0.0588,0.0567,0.0597,0.0601,0.0594,0.0622,0.0562,0.0571,0.0474,0.0478,0.0443,0.0385,0.0366,0.0356,0.0303,0.0302,0.0279,0.0327,0.0309,0.0311,0.034,0.0341,0.0341,0,0.0514,0.0543,0.0601,0.0649,0.0659,0.0691,0.0739,0.076,0.0777,0.0775,0.0761,0.0722,0.0698,0.0611,0.053,0.0533,0.045,0.039,0.0388,0.0336,0.0279,0.0274,0.0316,0.0148,0.0347,0.0346,0.0346,0,0.0563,0.061,0.0662,0.0675,0.072,0.0756,0.0784,0.0812,0.0862,0.0889,0.094,0.0875,0.089,0.0768,0.0633,0.0592,0.055,0.0477,0.037,0.0367,0.0329,0.0321,0.0211,0.0418,0.0418,0.0417,0.0417,0,0.061,0.0656,0.0699,0.0734,0.0817,0.0828,0.0925,0.0943,0.101,0.1112,0.1035,0.1113,0.0933,0.0882,0.071,0.0572,0.061,0.0398,0.0372,0.0357,0.0352,0.0183,0.009,0.0418,0.0418,0.0418,0.0418,0,0.066,0.0679,0.0756,0.0821,0.0845,0.0915,0.1021,0.1108,0.1154,0.1293,0.132,0.1317,0.1258,0.1064,0.0898,0.0709,0.0455,0.0486,0.0484,0.0456,0.0165,0.0079,-0.0041,-0.0109,0.0364,0.0364,0.0363,0,0.0691,0.0735,0.0823,0.0886,0.0923,0.1021,0.1106,0.117,0.1281,0.1436,0.153,0.1523,0.1552,0.1289,0.0951,0.0661,0.0479,0.0439,0.0334,0.0166,0.005,-0.0013,-0.0066,0.032,0.0319,0.0319,0.0318,0,0.0764,0.0796,0.0861,0.0974,0.1074,0.119,0.1322,0.1426,0.1551,0.1692,0.1868,0.1907,0.1672,0.1379,0.0967,0.0745,0.0316,0.0414,0.0243,0.0016,-0.0061,-0.0143,0.0303,0.0312,0.0313,0.0313,0.0314,0.0314,0.0826,0.0886,0.0972,0.1075,0.1196,0.1355,0.147,0.1643,0.184,0.2069,0.2097,0.2184,0.1745,0.1184,0.0873,0.0267,0.0277,0.0058,-0.0026,-0.0069,-0.0159,0.0277,0.0248,0.0248,0.0249,0.0249,0.0249,0,0.09,0.0963,0.107,0.1207,0.1345,0.1392,0.1615,0.1757,0.2009,0.2214,0.2362,0.2168,0.1643,0.1085,0.0267,-0.0122,-0.0251,-0.0321,-0.0426,-0.0455,-0.0065,-0.0094,-0.0201,-0.0201,-0.0201,-0.02,-0.02,-0.02,0.0952,0.1052,0.1093,0.1301,0.1408,0.1609,0.1741,0.1959,0.2134,0.2365,0.2399,0.2387,0.193,0.058,-0.0334,-0.0531,-0.0759,-0.0817,-0.0915,-0.068,-0.0651,-0.0624,-0.0674,-0.0901,-0.0902,-0.127,-0.1274,-0.1277]}],[{"header":{"parameterUnit":"m.s-1","parameterCategory":2,"la1":30.2991,"la2":30.254,"lo1":-89.0895,"lo2":-89.0444,"dy":0.0017,"dx":0.0017,"nx":28,"ny":28,"refTime":"2024-03-29T03:00:00:Z","depth":"2","parameterNumber":2,"parameterNumberName":"U-component_of_CURRENTS"},"data":[0,0,0,0,0,0,0,0,0,0,0,0,0,0,0,0,0,0,0,0,0,0,0,0,0,0,0,0,0,0,0,0,0,0,0,0,0,0,0,0,0,0,0,0,0,0,0,0,0,0,0,0,0,0,0,0,0,0,0.2413,0.2414,0,0.244,0.244,0.244,0.2435,0.2435,0.2434,0.2434,0.2446,0.2447,0.2447,0,0,0,0,0,0,0,0,0,0,0,0,0,0.2369,0.237,0.2413,0.2414,0.2414,0.244,0.244,0.244,0.2435,0.2435,0.2434,0.2434,0.2446,0.2446,0.2447,0,0,0,0,0,0,0,0,0,0,0,0,0,0.2389,0.237,0.2413,0.2417,0.2417,0.244,0.244,0.244,0.2435,0.2435,0.2434,0.2434,0.2446,0.2446,0.2447,0.246,0,0,0.245,0.245,0,0,0,0,0,0,0,0,0.2388,0.239,0.2416,0.2416,0.2417,0.2436,0.2429,0.2447,0.2435,0.2426,0.2434,0.2434,0.2443,0.2444,0.2447,0.2461,0.2461,0.245,0.245,0.2451,0.2451,0,0,0,0,0,0,0,0.2387,0.2389,0.2421,0.2416,0.2417,0.2421,0.2423,0.2432,0.2434,0.2426,0.2427,0.2434,0.2443,0.2446,0.2447,0.2461,0.245,0.2451,0.2451,0.2451,0.2532,0.2533,0,0,0,0,0,0,0.2388,0.2388,0.242,0.2422,0.2404,0.2422,0.2424,0.2428,0.2434,0.2436,0.2434,0.2434,0.2445,0.2446,0.2447,0.2502,0.2451,0.2451,0.2452,0.253,0.2532,0.2534,0,0,0,0,0,0,0.2387,0.2391,0.2419,0.2408,0.2412,0.2424,0.2428,0.2429,0.2444,0.2441,0.2441,0.245,0.2444,0.2446,0.2472,0.2501,0.2452,0.2453,0.2528,0.2531,0.2533,0.2587,0,0,0,0,0,0,0.2386,0.239,0.2399,0.2408,0.2413,0.2445,0.2429,0.243,0.245,0.2449,0.2454,0.2454,0.2444,0.2471,0.2473,0.2501,0.2453,0.2526,0.2529,0.2532,0.2583,0.2591,0.2597,0,0,0,0,0,0.2384,0.2394,0.2399,0.2403,0.2423,0.2446,0.2449,0.2454,0.2451,0.2465,0.2469,0.2455,0.2491,0.2473,0.2474,0.2504,0.2525,0.2528,0.2532,0.258,0.2589,0.2597,0,0,0,0,0,0,0.2375,0.2395,0.24,0.2415,0.2437,0.2447,0.2459,0.2466,0.248,0.2481,0.2473,0.2474,0.2511,0.2502,0.2481,0.2538,0.2507,0.2511,0.2543,0.2552,0.2559,0.2566,0.2454,0,0,0,0,0,0.2379,0.2394,0.2415,0.2429,0.244,0.2454,0.2466,0.2474,0.2487,0.2493,0.2498,0.2508,0.2526,0.2534,0.2547,0.2574,0.2599,0.2596,0.2604,0.261,0.2619,0.2693,0.2708,0.2546,0.2546,0.2546,0,0,0.2381,0.2393,0.2403,0.2429,0.2443,0.2464,0.246,0.2486,0.2504,0.2493,0.252,0.2536,0.2541,0.2575,0.259,0.2571,0.267,0.2615,0.262,0.2625,0.2698,0.2714,0.2728,0.2548,0.2548,0.2548,0,0,0.2389,0.2403,0.242,0.2442,0.2473,0.2482,0.2494,0.2519,0.2531,0.2564,0.2564,0.26,0.2619,0.2634,0.2641,0.2698,0.271,0.2704,0.2742,0.2815,0.2829,0.2841,0.2898,0.2915,0.2703,0.2703,0.2703,0,0.2392,0.241,0.243,0.2453,0.2472,0.2491,0.2516,0.2533,0.2564,0.2592,0.258,0.2652,0.2647,0.2704,0.2717,0.2715,0.2756,0.2706,0.2825,0.2838,0.285,0.2905,0.2923,0.2706,0.2706,0.2706,0.2705,0,0.2412,0.2433,0.2445,0.2478,0.2504,0.2528,0.2557,0.2592,0.2611,0.2638,0.2708,0.2718,0.2767,0.2769,0.2754,0.2841,0.2844,0.283,0.2802,0.287,0.2923,0.2941,0.2711,0.271,0.2709,0.2708,0,0,0.24,0.2449,0.2453,0.2477,0.252,0.2544,0.2587,0.264,0.2691,0.2727,0.2798,0.2826,0.2858,0.287,0.2873,0.2917,0.3025,0.2909,0.2912,0.2965,0.3193,0.3108,0.3119,0.3042,0.3046,0.3048,0.3198,0,0.2409,0.2448,0.2472,0.2517,0.2542,0.2585,0.2625,0.2683,0.2735,0.2811,0.2851,0.2918,0.2889,0.2928,0.2974,0.3023,0.3076,0.2986,0.312,0.3124,0.304,0.3138,0.2878,0.2982,0.3215,0.3218,0.3221,0,0.2414,0.2444,0.2481,0.2546,0.2563,0.2599,0.269,0.2732,0.284,0.289,0.2978,0.3019,0.3107,0.3062,0.3196,0.3148,0.3178,0.3199,0.3206,0.312,0.3073,0.2952,0.3006,0.3251,0.3248,0.3246,0.3244,0,0.2387,0.2449,0.2476,0.2498,0.2573,0.2616,0.2665,0.2768,0.2828,0.296,0.304,0.314,0.3218,0.3278,0.3324,0.3284,0.346,0.3412,0.3364,0.3358,0.3157,0.3127,0.3508,0.3507,0.3507,0.3507,0.3506,0,0.2373,0.2405,0.2475,0.2491,0.2552,0.2616,0.2697,0.2773,0.2898,0.2993,0.3088,0.3187,0.3281,0.3382,0.3392,0.3448,0.353,0.3398,0.3403,0.3167,0.3138,0.3376,0.3359,0.3512,0.3511,0.351,0.3509,0,0.2337,0.2375,0.2426,0.251,0.2535,0.259,0.2704,0.2777,0.2906,0.3041,0.3096,0.3271,0.3404,0.3476,0.3589,0.3546,0.3591,0.3581,0.329,0.3256,0.3422,0.3406,0.3558,0.3556,0.3555,0.3554,0.3553,0,0.2321,0.2336,0.242,0.2455,0.2497,0.2576,0.2631,0.2762,0.2848,0.308,0.315,0.3337,0.342,0.3562,0.3543,0.3571,0.3612,0.3325,0.3183,0.3444,0.3434,0.3419,0.3405,0.2947,0.2941,0.2936,0.2932,0,0.2299,0.233,0.2369,0.2423,0.2488,0.2544,0.2644,0.27,0.2869,0.2987,0.3147,0.3234,0.339,0.3301,0.3346,0.3314,0.3295,0.3229,0.362,0.2961,0.2876,0.2863,0.2868,0.289,0.2895,0.2898,0.29,0.2902,0.2287,0.2309,0.2349,0.2395,0.2467,0.2506,0.25,0.2614,0.2703,0.2827,0.2991,0.3031,0.3087,0.3018,0.2942,0.2897,0.3108,0.2949,0.296,0.2978,0.2867,0.2783,0.276,0.2763,0.2766,0.2768,0.277,0,0.2242,0.2282,0.2318,0.2361,0.2381,0.2447,0.2498,0.2451,0.2491,0.2635,0.2706,0.2512,0.2483,0.2552,0.2423,0.2419,0.2365,0.2314,0.2215,0.2261,0.2301,0.215,0.1856,0.1853,0.185,0.1847,0,0,0.2229,0.2221,0.2223,0.2239,0.2286,0.227,0.2261,0.2196,0.2229,0.2185,0.2199,0.2372,0.2489,0.2135,0.2095,0.1955,0.2083,0.188,0.2624,0.2556,0.2591,0.2692,0.2517,0,0,0,0,0]},{"header":{"parameterUnit":"m.s-1","parameterCategory":2,"la1":30.2991,"la2":30.254,"lo1":-89.0895,"lo2":-89.0444,"dy":0.0017,"dx":0.0017,"nx":28,"ny":28,"refTime":"2024-03-29T03:00:00:Z","depth":"2","parameterNumber":3,"parameterNumberName":"V-component_of_CURRENTS"},"data":[0,0,0,0,0,0,0,0,0,0,0,0,0,0,0,0,0,0,0,0,0,0,0,0,0,0,0,0,0,0,0,0,0,0,0,0,0,0,0,0,0,0,0,0,0,0,0,0,0,0,0,0,0,0,0,0,0,0,0.0009,0.0009,0,-0.003,-0.003,-0.0031,-0.006,-0.006,-0.006,-0.0061,-0.0121,-0.0123,-0.0124,0,0,0,0,0,0,0,0,0,0,0,0,0,0.0011,0.0011,0.0009,0.0009,0.0008,-0.003,-0.003,-0.0031,-0.006,-0.006,-0.0061,-0.0061,-0.0121,-0.0123,-0.0124,0,0,0,0,0,0,0,0,0,0,0,0,0,-0.0007,0.0011,0.0009,-0.001,-0.0012,-0.003,-0.003,-0.0031,-0.006,-0.006,-0.0061,-0.0061,-0.012,-0.0123,-0.0125,-0.0135,0,0,-0.0132,-0.0133,0,0,0,0,0,0,0,0,-0.0006,-0.0007,-0.0007,-0.0008,-0.0011,-0.0039,-0.0052,-0.0066,-0.006,-0.0043,-0.0061,-0.0061,-0.0095,-0.0099,-0.0108,-0.0138,-0.014,-0.0132,-0.0133,-0.0134,-0.0135,0,0,0,0,0,0,0,-0.0004,-0.0006,-0.0008,-0.0007,-0.0009,-0.0032,-0.0035,-0.0055,-0.0069,-0.0045,-0.0047,-0.0048,-0.0096,-0.0106,-0.011,-0.0141,-0.0132,-0.0134,-0.0135,-0.0136,-0.0173,-0.0173,0,0,0,0,0,0,0.0006,-0.0004,-0.0007,-0.0009,-0.0007,-0.0032,-0.0035,-0.0031,-0.0069,-0.0074,-0.0048,-0.005,-0.0102,-0.0107,-0.0112,-0.0107,-0.0134,-0.0136,-0.0138,-0.0174,-0.0173,-0.0173,0,0,0,0,0,0,0.0007,0.0007,-0.0005,-0.0007,-0.001,-0.0031,-0.0027,-0.0032,-0.0036,-0.0071,-0.0077,-0.0047,-0.0102,-0.0109,-0.0126,-0.0111,-0.0137,-0.0139,-0.0174,-0.0173,-0.0173,-0.011,0,0,0,0,0,0,0.0007,0.0007,0.0011,-0.0006,-0.0009,-0.0005,-0.0027,-0.0032,-0.0036,-0.0039,-0.0072,-0.0078,-0.0103,-0.0123,-0.0129,-0.0114,-0.0141,-0.0174,-0.0174,-0.0173,-0.0113,-0.0108,-0.0103,0,0,0,0,0,0.0007,0.0019,0.0012,0.0012,-0.0001,-0.0005,-0.0008,-0.0026,-0.0036,-0.0032,-0.0059,-0.0077,-0.0122,-0.0124,-0.0131,-0.0117,-0.0175,-0.0174,-0.0173,-0.0115,-0.0109,-0.0104,0,0,0,0,0,0,0.0021,0.0017,0.0009,0.0018,0.0011,-0.0009,-0.0008,-0.002,-0.0038,-0.0041,-0.0075,-0.0083,-0.0093,-0.0115,-0.0116,-0.0127,-0.015,-0.0151,-0.0104,-0.0098,-0.0093,-0.0072,-0.0143,0,0,0,0,0,0.0027,0.0035,0.0025,0.0032,0.0031,0.0012,0.0008,-0.0001,-0.0019,-0.0027,-0.005,-0.0075,-0.0096,-0.0104,-0.0128,-0.0133,-0.0155,-0.0128,-0.0123,-0.0119,-0.0106,-0.0132,-0.0128,-0.017,-0.017,-0.017,0,0,0.0034,0.0033,0.0037,0.0036,0.0027,0.0036,0.0009,0.001,0.0018,-0.0031,-0.003,-0.0061,-0.0095,-0.0102,-0.0108,-0.0117,-0.0119,-0.0118,-0.0114,-0.0104,-0.0131,-0.0127,-0.0123,-0.0169,-0.017,-0.017,0,0,0.0059,0.0052,0.0069,0.0069,0.0065,0.0055,0.0059,0.0046,0.004,0.0034,0.0001,-0.0019,-0.0048,-0.0067,-0.0082,-0.0064,-0.0096,-0.0071,-0.0025,-0.005,-0.0047,-0.0044,-0.0067,-0.0067,-0.0065,-0.0065,-0.0065,0,0.0068,0.0088,0.0073,0.009,0.0095,0.0069,0.009,0.0081,0.0063,0.0065,0.0043,0.0004,-0.003,-0.0033,-0.003,-0.0052,-0.0071,-0.0043,-0.0043,-0.0041,-0.0039,-0.0064,-0.0064,-0.0062,-0.0062,-0.0062,-0.0063,0,0.0105,0.0121,0.0132,0.0146,0.0148,0.0161,0.0151,0.0153,0.0138,0.0128,0.012,0.0071,0.0053,0.0036,0.0006,0.0008,-0.0011,-0.0036,-0.0054,-0.0031,-0.0059,-0.006,-0.0057,-0.0058,-0.0059,-0.006,0,0,0.0132,0.0154,0.016,0.0181,0.018,0.0192,0.0204,0.0213,0.0236,0.0202,0.0224,0.0172,0.0149,0.0131,0.0091,0.0066,0.0052,0.0027,0.0024,0.0011,0.0,-0.0036,-0.0042,0.0027,0.0027,0.0028,-0.0024,0,0.0168,0.0216,0.0213,0.0259,0.0284,0.0269,0.0291,0.0293,0.0286,0.03,0.0249,0.0251,0.0185,0.0185,0.0146,0.0083,0.0051,0.0068,-0.0026,-0.0029,-0.0059,-0.0044,-0.0008,-0.0053,-0.0026,-0.0026,-0.0026,0,0.021,0.0239,0.0289,0.0331,0.0341,0.0366,0.0402,0.0416,0.0419,0.0417,0.04,0.0362,0.0328,0.0266,0.0167,0.0184,0.0099,0.0038,0.0034,-0.002,-0.0068,-0.0073,-0.0058,-0.003,-0.003,-0.0029,-0.0029,0,0.0248,0.0295,0.0339,0.0351,0.0389,0.0419,0.0441,0.0458,0.0494,0.05,0.0533,0.0465,0.0461,0.0343,0.0211,0.0193,0.0097,0.0054,-0.0061,-0.0065,-0.0062,-0.0066,-0.0023,-0.0023,-0.0023,-0.0023,-0.0023,0,0.0289,0.0329,0.0368,0.0398,0.0466,0.0474,0.055,0.0562,0.0605,0.0675,0.0605,0.0643,0.0481,0.0405,0.0254,0.0101,0.0127,-0.0046,-0.0078,-0.0041,-0.0042,-0.0046,-0.0048,-0.0025,-0.0024,-0.0024,-0.0024,0,0.0323,0.0344,0.0408,0.0466,0.0488,0.0543,0.0631,0.0692,0.0723,0.0816,0.083,0.0788,0.069,0.0511,0.0331,0.0179,0.0019,-0.0049,0.0005,-0.002,-0.014,-0.0138,-0.0179,-0.0181,-0.0183,-0.0184,-0.0185,0,0.0344,0.0378,0.0458,0.051,0.0544,0.0626,0.0691,0.0744,0.0823,0.0914,0.0971,0.0911,0.0876,0.059,0.032,0.0054,0.0013,-0.0099,-0.014,-0.0127,-0.0155,-0.0151,-0.0147,-0.0111,-0.0111,-0.0111,-0.0111,0,0.0388,0.0415,0.0468,0.0568,0.0652,0.0747,0.0852,0.0933,0.1022,0.1116,0.1206,0.1183,0.0925,0.0665,0.0293,0.0108,-0.0058,-0.0115,-0.01,-0.0082,-0.0069,-0.0094,-0.0091,-0.0114,-0.0113,-0.0113,-0.0113,-0.0113,0.0422,0.0468,0.0538,0.0635,0.0733,0.0863,0.0963,0.1093,0.1236,0.1381,0.1345,0.1327,0.1025,0.055,0.024,-0.0079,-0.0075,-0.0195,-0.0192,-0.0189,-0.0177,-0.0167,-0.0228,-0.0229,-0.0229,-0.0229,-0.023,0,0.0458,0.0517,0.0603,0.0726,0.0838,0.0887,0.1065,0.1175,0.1367,0.1475,0.1533,0.1239,0.0944,0.0605,0.0141,-0.0158,-0.0173,-0.0256,-0.0199,-0.0194,-0.0191,-0.0178,-0.023,-0.0231,-0.0232,-0.0233,0,0,0.0484,0.0556,0.0596,0.0781,0.0886,0.1059,0.1174,0.1335,0.145,0.1546,0.1546,0.1459,0.1055,0.0711,0.0315,0.0056,-0.0003,-0.0005,0.0029,0.0149,0.0156,-0.0124,-0.0095,0,0,0,0,0]}],[{"header":{"parameterUnit":"m.s-1","parameterCategory":2,"la1":30.2991,"la2":30.254,"lo1":-89.0895,"lo2":-89.0444,"dy":0.0017,"dx":0.0017,"nx":28,"ny":28,"refTime":"2024-03-29T03:00:00:Z","depth":"4","parameterNumber":2,"parameterNumberName":"U-component_of_CURRENTS"},"data":[0,0,0,0,0,0,0,0,0,0,0,0,0,0,0,0,0,0,0,0,0,0,0,0,0,0,0,0,0,0,0,0,0,0,0,0,0,0,0,0,0,0,0,0,0,0,0,0,0,0,0,0,0,0,0,0,0,0,0.1535,0.1536,0,0.1602,0.1602,0.1603,0.1655,0.1656,0.1657,0.1658,0.1732,0.1733,0.1735,0,0,0,0,0,0,0,0,0,0,0,0,0,0.145,0.1451,0.1535,0.1536,0.1537,0.1602,0.1602,0.1603,0.1655,0.1656,0.1657,0.1658,0.1732,0.1733,0.1735,0,0,0,0,0,0,0,0,0,0,0,0,0,0.1497,0.1452,0.1535,0.1573,0.1577,0.1602,0.1602,0.1603,0.1655,0.1656,0.1657,0.1658,0.1731,0.1733,0.1735,0.1726,0,0,0.1741,0.1742,0,0,0,0,0,0,0,0,0.1494,0.15,0.1566,0.157,0.1575,0.1623,0.16,0.1645,0.1655,0.1623,0.1658,0.1659,0.1697,0.1702,0.1709,0.1729,0.1732,0.1741,0.1742,0.1743,0.1744,0,0,0,0,0,0,0,0.1491,0.1497,0.1559,0.1567,0.1573,0.1585,0.1593,0.1609,0.1652,0.1626,0.1631,0.1641,0.1699,0.1707,0.1711,0.1733,0.1741,0.1743,0.1744,0.1745,0.1854,0.1856,0,0,0,0,0,0,0.1486,0.1494,0.1557,0.1562,0.1539,0.1586,0.1595,0.1605,0.1652,0.166,0.164,0.1643,0.1703,0.1709,0.1714,0.1794,0.1743,0.1745,0.1746,0.1852,0.1854,0.1856,0,0,0,0,0,0,0.1484,0.1491,0.1555,0.1531,0.154,0.1587,0.1598,0.1606,0.1648,0.1663,0.1671,0.1679,0.1704,0.1711,0.176,0.1794,0.1746,0.1748,0.185,0.1853,0.1855,0.1898,0,0,0,0,0,0,0.1481,0.149,0.1511,0.1531,0.1542,0.1589,0.1597,0.1606,0.1652,0.1658,0.1698,0.1704,0.1705,0.1757,0.1762,0.1796,0.1749,0.1848,0.1851,0.1854,0.1894,0.1902,0.1908,0,0,0,0,0,0.1478,0.1493,0.1511,0.152,0.1564,0.159,0.1597,0.1631,0.1653,0.1674,0.1707,0.1704,0.1781,0.176,0.1765,0.1801,0.1846,0.185,0.1854,0.1891,0.19,0.1908,0,0,0,0,0,0,0.1466,0.1501,0.1521,0.1548,0.1578,0.16,0.1627,0.165,0.1692,0.1709,0.1722,0.173,0.1788,0.1789,0.1765,0.1843,0.1815,0.182,0.1842,0.185,0.1857,0.185,0.1751,0,0,0,0,0,0.1473,0.1498,0.1529,0.1555,0.1573,0.1607,0.163,0.1655,0.1687,0.1708,0.1737,0.1771,0.1801,0.1823,0.1847,0.1885,0.1895,0.1914,0.192,0.1926,0.1925,0.1981,0.1993,0.1869,0.1869,0.1869,0,0,0.1475,0.15,0.1515,0.1556,0.1583,0.161,0.1624,0.1667,0.1697,0.1708,0.1768,0.1798,0.1818,0.1865,0.1891,0.1874,0.1967,0.1931,0.1935,0.1932,0.1986,0.1998,0.2009,0.1871,0.1871,0.1871,0,0,0.1481,0.1516,0.1538,0.1567,0.1617,0.1635,0.1655,0.17,0.1732,0.1785,0.1807,0.1857,0.1902,0.1923,0.1937,0.1995,0.2003,0.2014,0.2041,0.2095,0.2106,0.2115,0.2141,0.2152,0.2015,0.2015,0.2015,0,0.1489,0.1516,0.1549,0.1578,0.1605,0.1649,0.1677,0.171,0.1769,0.1803,0.1813,0.1909,0.1925,0.1982,0.2002,0.201,0.2037,0.2005,0.2103,0.2113,0.2122,0.2146,0.2158,0.2017,0.2017,0.2017,0.2017,0,0.1501,0.1538,0.1554,0.1603,0.1636,0.1669,0.1715,0.1765,0.1812,0.1847,0.1931,0.1962,0.2021,0.2036,0.2035,0.2111,0.2109,0.2107,0.2079,0.2136,0.2159,0.217,0.2021,0.202,0.2019,0.2019,0,0,0.1479,0.1549,0.1559,0.159,0.1655,0.168,0.174,0.1801,0.1853,0.1919,0.1986,0.2043,0.2083,0.2101,0.2122,0.2159,0.2238,0.2163,0.2165,0.2182,0.2354,0.2203,0.2201,0.2265,0.2268,0.227,0.2343,0,0.1483,0.1531,0.1569,0.1623,0.1651,0.1714,0.1763,0.1831,0.1893,0.1969,0.2027,0.2098,0.2101,0.2145,0.2189,0.2233,0.2272,0.2217,0.2301,0.2303,0.2157,0.221,0.2277,0.2352,0.2354,0.2356,0.2358,0,0.1476,0.1513,0.1562,0.164,0.166,0.1706,0.1802,0.1854,0.1962,0.2015,0.2103,0.2154,0.2238,0.2226,0.2335,0.2309,0.2338,0.2356,0.236,0.2209,0.2173,0.2285,0.2378,0.2377,0.2375,0.2374,0.2372,0,0.1429,0.1506,0.1546,0.1573,0.1665,0.1717,0.1778,0.188,0.1932,0.206,0.2121,0.2223,0.2301,0.2355,0.2408,0.2391,0.2508,0.2489,0.2375,0.2365,0.2459,0.2448,0.2559,0.2559,0.2558,0.2558,0.2558,0,0.14,0.1439,0.1537,0.156,0.1624,0.1705,0.1786,0.1863,0.1973,0.204,0.2155,0.2218,0.2344,0.2422,0.2441,0.2442,0.2547,0.2382,0.2377,0.2474,0.2465,0.2466,0.2455,0.2561,0.256,0.256,0.2559,0,0.1339,0.1401,0.1453,0.1561,0.1602,0.1653,0.1781,0.1828,0.1959,0.2053,0.2102,0.2254,0.2359,0.2445,0.2541,0.248,0.2491,0.2464,0.256,0.256,0.23,0.229,0.2336,0.2331,0.2327,0.2324,0.2321,0,0.1307,0.1329,0.1441,0.1469,0.1526,0.1617,0.1668,0.1804,0.1848,0.2049,0.2072,0.2239,0.2326,0.2343,0.2439,0.2468,0.2442,0.2421,0.2349,0.2288,0.228,0.2276,0.2272,0.2315,0.2314,0.2313,0.2312,0,0.1237,0.1289,0.133,0.1394,0.1453,0.1503,0.1593,0.1616,0.1773,0.1921,0.2002,0.2071,0.2189,0.2256,0.2306,0.2315,0.2414,0.238,0.2387,0.2319,0.2264,0.2258,0.2259,0.2298,0.23,0.2302,0.2302,0,0.1185,0.1193,0.1247,0.1287,0.1354,0.1359,0.1428,0.1493,0.1563,0.1789,0.1816,0.2003,0.2166,0.2178,0.2214,0.2223,0.2187,0.2098,0.212,0.2136,0.2035,0.1934,0.1866,0,0,0,0,0,0.1122,0.1106,0.1131,0.1157,0.1217,0.1254,0.1353,0.1424,0.1596,0.1606,0.1705,0.1805,0.1897,0.1984,0.1955,0.2113,0.2181,0.2067,0.2085,0.2223,0.2239,0.2139,0,0,0,0,0,0,0.1074,0.1091,0.1083,0.1029,0.1034,0.1077,0.1138,0.1255,0.1265,0.1464,0.1524,0.1685,0.1797,0.1903,0.192,0.1946,0.1915,0.2184,0.2179,0.2214,0.2228,0.2241,0.2143,0,0,0,0,0]},{"header":{"parameterUnit":"m.s-1","parameterCategory":2,"la1":30.2991,"la2":30.254,"lo1":-89.0895,"lo2":-89.0444,"dy":0.0017,"dx":0.0017,"nx":28,"ny":28,"refTime":"2024-03-29T03:00:00:Z","depth":"4","parameterNumber":3,"parameterNumberName":"V-component_of_CURRENTS"},"data":[0,0,0,0,0,0,0,0,0,0,0,0,0,0,0,0,0,0,0,0,0,0,0,0,0,0,0,0,0,0,0,0,0,0,0,0,0,0,0,0,0,0,0,0,0,0,0,0,0,0,0,0,0,0,0,0,0,0,-0.0025,-0.0026,0,-0.005,-0.0051,-0.0051,-0.0072,-0.0072,-0.0072,-0.0072,-0.0119,-0.0121,-0.0122,0,0,0,0,0,0,0,0,0,0,0,0,0,-0.0027,-0.0027,-0.0025,-0.0026,-0.0026,-0.005,-0.0051,-0.0051,-0.0072,-0.0072,-0.0072,-0.0072,-0.0119,-0.012,-0.0122,0,0,0,0,0,0,0,0,0,0,0,0,0,-0.0037,-0.0027,-0.0025,-0.0038,-0.004,-0.005,-0.0051,-0.0051,-0.0072,-0.0072,-0.0072,-0.0072,-0.0119,-0.012,-0.0122,-0.0129,0,0,-0.0127,-0.0128,0,0,0,0,0,0,0,0,-0.0037,-0.0037,-0.0036,-0.0037,-0.0039,-0.0057,-0.0069,-0.0078,-0.0071,-0.006,-0.0072,-0.0072,-0.01,-0.0103,-0.0108,-0.0131,-0.0133,-0.0127,-0.0128,-0.0129,-0.013,0,0,0,0,0,0,0,-0.0036,-0.0037,-0.0036,-0.0036,-0.0038,-0.0054,-0.0055,-0.0071,-0.008,-0.0061,-0.0063,-0.0064,-0.0101,-0.0107,-0.011,-0.0133,-0.0127,-0.0129,-0.013,-0.0131,-0.0162,-0.0162,0,0,0,0,0,0,-0.0029,-0.0036,-0.0035,-0.0037,-0.0037,-0.0053,-0.0055,-0.0052,-0.0079,-0.0083,-0.0064,-0.0065,-0.0104,-0.0108,-0.0112,-0.0112,-0.0129,-0.0131,-0.0132,-0.0162,-0.0162,-0.0162,0,0,0,0,0,0,-0.0029,-0.0029,-0.0034,-0.0037,-0.0038,-0.0053,-0.0049,-0.0052,-0.0056,-0.0081,-0.0085,-0.0064,-0.0104,-0.0109,-0.0123,-0.0114,-0.0132,-0.0133,-0.0162,-0.0162,-0.0162,-0.0118,0,0,0,0,0,0,-0.0029,-0.0028,-0.0026,-0.0036,-0.0038,-0.0034,-0.0049,-0.0053,-0.0056,-0.0058,-0.0083,-0.0088,-0.0105,-0.0121,-0.0125,-0.0117,-0.0134,-0.0163,-0.0162,-0.0162,-0.012,-0.0117,-0.0114,0,0,0,0,0,-0.0029,-0.002,-0.0025,-0.0025,-0.0033,-0.0034,-0.0036,-0.0049,-0.0056,-0.0054,-0.0073,-0.0087,-0.0121,-0.0122,-0.0127,-0.0119,-0.0163,-0.0162,-0.0162,-0.0122,-0.0117,-0.0114,0,0,0,0,0,0,-0.002,-0.0022,-0.0027,-0.002,-0.0025,-0.0037,-0.0037,-0.0045,-0.0058,-0.0061,-0.0086,-0.0092,-0.0101,-0.0117,-0.0117,-0.0128,-0.0144,-0.0144,-0.0111,-0.0108,-0.0104,-0.0091,-0.0136,0,0,0,0,0,-0.0016,-0.001,-0.0016,-0.0011,-0.0012,-0.0024,-0.0027,-0.0034,-0.0046,-0.0051,-0.0069,-0.0088,-0.0104,-0.0111,-0.0128,-0.0133,-0.0157,-0.0132,-0.0129,-0.0126,-0.0118,-0.0147,-0.0146,-0.016,-0.016,-0.016,0,0,-0.0012,-0.0012,-0.0009,-0.0009,-0.0015,-0.0007,-0.0027,-0.0026,-0.0019,-0.0055,-0.0055,-0.0079,-0.0104,-0.011,-0.0115,-0.0121,-0.0136,-0.0125,-0.0122,-0.0117,-0.0146,-0.0145,-0.0144,-0.016,-0.016,-0.016,0,0,0.0005,0.0001,0.0013,0.0013,0.0011,0.0005,0.0008,-0.0001,-0.0006,-0.0011,-0.0034,-0.0052,-0.0074,-0.0088,-0.0099,-0.0089,-0.012,-0.0095,-0.0065,-0.0092,-0.0091,-0.0091,-0.0125,-0.0127,-0.009,-0.009,-0.009,0,0.001,0.0026,0.0016,0.0029,0.0033,0.0015,0.0031,0.0025,0.0012,0.0012,-0.0004,-0.0037,-0.0062,-0.0067,-0.0065,-0.0081,-0.0105,-0.0076,-0.0088,-0.0088,-0.0088,-0.0123,-0.0126,-0.0088,-0.0088,-0.0089,-0.0089,0,0.0037,0.005,0.0057,0.0069,0.0072,0.0082,0.0076,0.0077,0.0065,0.0056,0.0045,0.001,-0.0007,-0.002,-0.0041,-0.0048,-0.0069,-0.0082,-0.0095,-0.0083,-0.0122,-0.0126,-0.0085,-0.0086,-0.0087,-0.0087,0,0,0.0054,0.0073,0.0077,0.0093,0.0095,0.0105,0.0115,0.012,0.0132,0.0107,0.0115,0.0079,0.0057,0.0043,0.0014,-0.0012,-0.0041,-0.0043,-0.0046,-0.0073,-0.0109,-0.0113,-0.0119,-0.0057,-0.0058,-0.0058,-0.0137,0,0.008,0.0115,0.0116,0.0151,0.0169,0.0161,0.0177,0.0178,0.0167,0.0169,0.0131,0.0123,0.0083,0.0075,0.0043,-0.0019,-0.0049,-0.0018,-0.0119,-0.0122,-0.0124,-0.0123,-0.0059,-0.0141,-0.0142,-0.0143,-0.0143,0,0.0108,0.013,0.0168,0.0201,0.0209,0.0229,0.025,0.0261,0.0254,0.0246,0.0226,0.0191,0.0154,0.0117,0.0021,0.0042,-0.0026,-0.008,-0.0084,-0.0104,-0.0134,-0.0155,-0.0152,-0.0151,-0.015,-0.015,-0.0149,0,0.013,0.0168,0.0201,0.0211,0.0242,0.0264,0.0282,0.0287,0.0306,0.0295,0.0302,0.0246,0.0225,0.0134,0.0022,0.002,-0.0091,-0.0109,-0.0179,-0.0181,-0.0172,-0.0172,-0.0177,-0.0177,-0.0177,-0.0176,-0.0176,0,0.0157,0.0186,0.0219,0.024,0.029,0.03,0.035,0.0356,0.0372,0.0405,0.0348,0.035,0.0229,0.015,0.0039,-0.0082,-0.0081,-0.0172,-0.0198,-0.0154,-0.0151,-0.0176,-0.0175,-0.0179,-0.0179,-0.0178,-0.0178,0,0.0173,0.0193,0.0238,0.0283,0.0303,0.034,0.0403,0.0438,0.0446,0.0485,0.0485,0.0426,0.0325,0.0191,0.0039,-0.0049,-0.0174,-0.0219,-0.0163,-0.0186,-0.0251,-0.0247,-0.0302,-0.0302,-0.0303,-0.0304,-0.0304,0,0.0183,0.0206,0.0268,0.0307,0.0333,0.0393,0.044,0.0472,0.0513,0.0532,0.0554,0.0474,0.0417,0.0205,0.005,-0.0161,-0.0191,-0.026,-0.0254,-0.0243,-0.0263,-0.0258,-0.0253,-0.0305,-0.0305,-0.0305,-0.0306,0,0.02,0.0221,0.0259,0.0339,0.04,0.0469,0.0541,0.0575,0.0619,0.0624,0.062,0.0513,0.0401,0.0221,0.0056,-0.0097,-0.0218,-0.0267,-0.0267,-0.0262,-0.0248,-0.0266,-0.026,-0.0308,-0.0307,-0.0307,-0.0307,0,0.0212,0.0242,0.0298,0.0371,0.045,0.0533,0.0566,0.0624,0.0661,0.0683,0.0676,0.0554,0.0481,0.0253,0.0099,-0.0051,-0.0092,-0.0141,-0.0148,-0.0148,-0.0083,-0.0041,-0.0057,0,0,0,0,0,0.0226,0.0269,0.0331,0.0419,0.0499,0.0551,0.0631,0.0659,0.0698,0.071,0.07,0.0597,0.0384,0.0282,0.0134,0.0065,-0.0135,-0.0116,-0.0199,-0.032,-0.0317,-0.0268,0,0,0,0,0,0,0.0239,0.0296,0.033,0.0447,0.0515,0.0612,0.0667,0.0693,0.0699,0.0711,0.0598,0.0556,0.034,0.0474,0.0132,0.0085,0.001,-0.0216,-0.0219,-0.0321,-0.0319,-0.0317,-0.0265,0,0,0,0,0]}]]